Regional Weather Roundup
Issued by NWS Wilmington, NC

Home | Current Version | Previous Version | Text Only | Print | Product List | Glossary On
Versions: 1 2 3 4 5 6 7 8 9 10 11 12 13 14 15 16 17 18 19 20 21 22 23 24 25 26 27 28 29 30 31 32 33 34 35 36 37 38 39 40 41 42 43 44 45 46 47 48 49 50
000
ASUS42 KILM 302310
RWRILM
RWRILM
REGIONAL HOURLY WEATHER ROUNDUP
NATIONAL WEATHER SERVICE WILMINGTON NC
700 PM EDT TUE SEP 30 2014

NOTE: "FAIR" INDICATES FEW OR NO CLOUDS BELOW 12,000 FEET WITH NO
SIGNIFICANT WEATHER AND/OR OBSTRUCTIONS TO VISIBILITY.

...............WFO WILMINGTON COUNTY WARNING AREA...............

......COASTAL NC AND SC COUNTIES......

CITY           SKY/WX    TMP DP  RH WIND       PRES   REMARKS
WILMINGTON     PTCLDY    75  65  70 N5        29.84R
SOUTHPORT      CLEAR     73  65  76 CALM      29.85R
N MYRTLE BEACH PTCLDY    75  66  73 N3        29.84R
MYRTLE BEACH   PTCLDY    79  63  57 N8        29.85R

......INLAND NC AND SC COUNTIES.......

CITY           SKY/WX    TMP DP  RH WIND       PRES   REMARKS
LUMBERTON      CLEAR     75  64  68 NE3       29.85R
ELIZABETHTOWN  CLEAR     74  65  72 CALM      29.86R
WHITEVILLE     CLEAR     73  65  77 CALM      29.85R
FLORENCE       CLEAR     76  64  66 CALM      29.86R
DARLINGTON     CLEAR     75  64  69 CALM      29.87R

....................REST OF NORTH CAROLINA......................

.........EASTERN NC.........

CITY           SKY/WX    TMP DP  RH WIND       PRES   REMARKS
CAPE HATTERAS  CLEAR     69  65  86 N8        29.84R
JACKSONVILLE   PTCLDY    72  63  73 CALM      29.85S
MOREHEAD CITY  CLEAR     71  64  78 NE6       29.85R
KENANSVILLE    CLEAR     72  63  72 N3        29.87R
NEW BERN       CLEAR     75  64  68 CALM      29.86R
ELIZABETH CITY CLEAR     70  63  78 NE8       29.87R

.........CENTRAL NC.........

CITY           SKY/WX    TMP DP  RH WIND       PRES   REMARKS
RALEIGH DURHAM PTCLDY    70  62  76 E3        29.88S
ROCKY MOUNT    CLEAR     69  63  81 NW3       29.88R
ROANOKE RAPIDS NOT AVBL
FAYETTEVILLE   CLEAR     73  65  75 NE3       29.86R
HOFFMAN        CLEAR     79  64  61 N2        29.89R

.........WESTERN NC.........

CITY           SKY/WX    TMP DP  RH WIND       PRES   REMARKS
CHARLOTTE      PTCLDY    76  60  57 CALM      29.89R
GREENSBORO     PTCLDY    75  59  57 SE3       29.88R
HICKORY        NOT AVBL
BOONE          NOT AVBL
ASHEVILLE      NOT AVBL

.....................REST OF SOUTH CAROLINA.....................

.........EASTERN SC.........

CITY           SKY/WX    TMP DP  RH WIND       PRES   REMARKS
CHARLESTON     PTCLDY    77  64  64 N7        29.86R
BEAUFORT MCAS  PTCLDY    77  66  68 CALM      29.86R
HILTON HEAD    NOT AVBL

.........CENTRAL SC.........

CITY           SKY/WX    TMP DP  RH WIND       PRES   REMARKS
COLUMBIA       PTCLDY    81  61  50 NW3       29.86R
ORANGEBURG     CLEAR     77  64  64 CALM      29.87R
SUMTER SHAW    PTCLDY    78  62  58 VRB2      29.85R

.........WESTERN SC.........

CITY           SKY/WX    TMP DP  RH WIND       PRES   REMARKS
GREENVILLE     NOT AVBL
ROCK HILL      CLEAR     74  63  68 CALM      29.89R
ANDERSON       CLEAR     77  63  61 S6        29.89R
CLEMSON        NOT AVBL
GREENWOOD      CLEAR     76  66  71 CALM      29.90R


...................COASTAL AND OFFSHORE REPORTS..................

................LOCAL PIERS AND NC RESERVE................


STATION/POSITION TIME  SKY/WX   TEMP    WIND        PRES    VSBY
                                AIR SEA DIR/SP/G
                 (UTC)          (F)     (DEG/KT/KT) (MB)    (MI)
JOHNY MRCER PIER 2300            76 78   70/  6/  6 1010.0R
NC RESRV MASNBRO 2200            76      60/  4     1010.0S
OCEAN CREST PIER 2300            78 75   60/  5/  6 1009.5R
SPRINGMAID  PIER 2300            76 76  200/  3/  3 1010.6R


................COASTAL AND OFFSHORE BUOYS................


STATION/POSITION TIME  SKY/WX   TEMP    WIND        PRES    VSBY
                                AIR SEA DIR/SP/G
                 (UTC)          (F)     (DEG/KT/KT) (MB)    (MI)
DIMNDSHOAL 41025 2300            74     350/ 17/ 21 1009.8R
WVE H/P(F/S)=  4/ 4 WND WVE H/P(F/S)=  3/ 4 SWL H/P/D(F/S/D)=  2/ 60/ 8

CAPE LOOKOUT     2200            74      30/ 13/ 15 1010.0R
ONSLOW BAY 41036 2200            76 80   40/ 14/ 16 1009.5R
5 WRITEBCH 41038 2200            73 76   70/  8/ 10   N/A
MASONBORO  41110 2300               76                N/A
WVE H/P(F/S)=  2/14 WND WVE H/P(F/S)=  2/ 5

WILM HARBR 41108 2300               76                N/A
WVE H/P(F/S)=  2/ 5 WND WVE H/P(F/S)=  2/ 5

27WRITEBCH 41037 2200            74 80   40/ 10/ 12 1010.0R
FRYING PAN 41013 NOT AVBL
SUNST NRSH 41024 2200            77     160/  6/  8 1010.2R
CAPRS NRSH 41029 2200            77     100/  6/  8   N/A
EDISTO     41004 2300            76 81   30/ 12/ 14 1010.1R
WVE H/P(F/S)=  4/ 6 WND WVE H/P(F/S)=  3/ 5 SWL H/P/D(F/S/D)=  3/ 6



..........OFFSHORE BUOYS BEYOND 100 NM OFFSHORE...........
.....IN A TRIANGLE---HAT TO BERMUDA TO BAHAMAS TO HAT.....


STATION/POSITION TIME  SKY/WX   TEMP    WIND        PRES    VSBY
                                AIR SEA DIR/SP/G
                 (UTC)          (F)     (DEG/KT/KT) (MB)    (MI)
150E HAT   41001 NOT AVBL
W BERMUDA  41048 2220            80 82  190/  8/ 12 1010.0R
WVE H/P(F/S)=  3/13 SWL H/P/D(F/S/D)=  3/100/13

ATLANTIC S 41049 2200            83 84  220/  4/  8 1012.1
WVE H/P(F/S)=  3/ 5 WND WVE H/P(F/S)=  2/ 3 SWL H/P/D(F/S/D)=  3/210/ 5

E BAHAMAS  41046 2247            83 84  220/ 16/ 17 1012.6F
WVE H/P(F/S)=  4/ 8 WND WVE H/P(F/S)=  3/ 5 SWL H/P/D(F/S/D)=  2/ 40/ 8

NE BAHAMAS 41047 2231            82 83  200/ 16/ 17 1010.1R
WVE H/P(F/S)=  3/ 4 WND WVE H/P(F/S)=  3/ 4 SWL H/P/D(F/S/D)=  2/ 30/ 7

120E CANVRL41010 2300            80 84  320/  8/ 10 1009.3R
WVE H/P(F/S)=  3/ 5 WND WVE H/P(F/S)=  2/ 3 SWL H/P/D(F/S/D)=  3/290/ 5


END


USA.gov is the U.S. government's official web portal to all federal, state and local government web resources and services.